Weather in Tolstovo-Vasyukovskoye

Russia / Stavropol Krai     45°00′02″N   44°09′44″E
temp.,
°C
wind,
m/s
gust,
m/s
humid.,
%
clouds,
%
prec.,
mm/h
press.,
hPa
HPBL,
m
11 may, tue
tue1100:00+7ssw596964 0.0 1018265
03:00+6ssw51076100 0.0 1018201
06:00+8s4877100 0.0 1018258
09:00+13se694997 0.0 10171173
12:00+16se8939100 0.0 10172068
15:00+16e81044100 0.0 10161763
18:00+15e81249100 0.0 1016755
21:00+11ese7135498 0.0 1017411
12 may, wed
wed1200:00+9ese48757 0.0 1017142
03:00+8e22873 0.0 101711
06:00+11ne128131 0.0 101783
09:00+15ene346695 0.0 10171003
12:00+19ene445192 0.0 10161617
15:00+21e544866 0.0 10151743
18:00+20ne56612 0.0 1015528
21:00+15ene510800 0.0 1015183
13 may, thu
thu1300:00+13se47781 0.0 1014112
03:00+11ese33730 0.0 101432
06:00+13ese24760 0.0 101599
09:00+19ese33560 0.0 1015581
12:00+23ese34430 0.0 1014989
15:00+26ese45390 0.0 10141165
18:00+24e464960 0.0 1013183
21:00+18ese46594 0.0 101472
14 may, fri
fri1400:00+15ese45750 0.0 101475
03:00+13e348613 0.0 101461
06:00+14e378047 0.0 1014199
09:00+20ese5661100 0.0 1013575
12:00+26ese56474 0.0 1012858
15:00+29se67400 0.0 10111110
18:00+26ese813400 0.0 1012465
21:00+19e614530 0.0 1013304
15 may, sat
sat1500:00+17e513410 0.0 1012253
03:00+15e411384 0.0 1012186
06:00+16ese310515 0.0 1012259
09:00+22se34435 0.0 1013463
12:00+27se22390 0.0 1012877
15:00+29s22350 0.0 10111293
18:00+28s12450 0.0 101129
21:00+21ese4740100 0.0 1013109